When you browse on this site, cookies collect data to enhance your experience and personalize the content and advertising you see.
Visit our Privacy Policy to learn more. By continuing to use the site, you agree to this use of cookies and data.
  • In United Kingdom
  • List of Countries
  • For 7 days
  • Water Temperature
  • Satellite Maps
  • Weather Map
  • Weather Widgets
  • user-avatar
    Login

    Hourly Weather Qiryat Bialik

    Today, 20 May, Monday

    Time Temperature Precipitation Wind Pressure Humidity
    00:00 +21°C° 0 mm 1 mps 759 mmHg 91%
    01:00 +21°C° 0 mm 1 mps 759 mmHg 91%
    02:00 +20°C° 0 mm 1 mps 759 mmHg 90%
    03:00 +20°C° 0 mm 1 mps 759 mmHg 89%
    04:00 +18°C° 0 mm 0 mps 759 mmHg 88%
    05:00 +18°C° 0 mm 0 mps 759 mmHg 88%
    06:00 +20°C° 0 mm 0 mps 760 mmHg 78%
    07:00 +21°C° 0 mm 0 mps 760 mmHg 68%
    08:00 +25°C° 0 mm 1 mps 760 mmHg 59%
    09:00 +27°C° 0 mm 1 mps 760 mmHg 54%
    10:00 +28°C° 0 mm 2 mps 760 mmHg 50%
    11:00 +29°C° 0 mm 3 mps 760 mmHg 45%
    12:00 +30°C° 0 mm 4 mps 760 mmHg 45%
    13:00 +30°C° 0 mm 4 mps 760 mmHg 45%
    14:00 +30°C° 0 mm 5 mps 760 mmHg 44%
    15:00 +29°C° 0 mm 5 mps 759 mmHg 47%
    16:00 +29°C° 0 mm 5 mps 759 mmHg 49%
    17:00 +28°C° 0 mm 5 mps 759 mmHg 51%
    18:00 +26°C° 0 mm 4 mps 759 mmHg 58%
    19:00 +25°C° 0 mm 3 mps 759 mmHg 65%
    20:00 +24°C° 0 mm 3 mps 759 mmHg 72%
    21:00 +22°C° 0 mm 3 mps 760 mmHg 72%
    22:00 +23°C° 0 mm 2 mps 760 mmHg 73%
    23:00 +23°C° 0 mm 2 mps 760 mmHg 73%

    Tomorrow, 21 May, Tuesday

    Time Temperature Precipitation Wind Pressure Humidity
    00:00 +23°C° 0 mm 1 mps 760 mmHg 73%
    01:00 +23°C° 0 mm 1 mps 760 mmHg 73%
    02:00 +20°C° 0 mm 0 mps 759 mmHg 72%
    03:00 +22°C° 0 mm 1 mps 759 mmHg 70%
    04:00 +22°C° 0 mm 1 mps 759 mmHg 68%
    05:00 +22°C° 0 mm 1 mps 759 mmHg 66%
    06:00 +25°C° 0 mm 1 mps 760 mmHg 59%
    07:00 +27°C° 0 mm 1 mps 760 mmHg 51%
    08:00 +29°C° 0 mm 1 mps 760 mmHg 44%
    09:00 +30°C° 0 mm 2 mps 760 mmHg 41%
    10:00 +31°C° 0 mm 3 mps 760 mmHg 38%
    11:00 +34°C° 0 mm 3 mps 760 mmHg 35%
    12:00 +34°C° 0 mm 4 mps 760 mmHg 35%
    13:00 +34°C° 0 mm 4 mps 760 mmHg 34%
    14:00 +34°C° 0 mm 5 mps 760 mmHg 33%
    15:00 +33°C° 0 mm 4 mps 760 mmHg 36%
    16:00 +30°C° 0 mm 4 mps 760 mmHg 38%
    17:00 +29°C° 0 mm 3 mps 760 mmHg 41%
    18:00 +28°C° 0 mm 3 mps 760 mmHg 46%
    19:00 +27°C° 0 mm 2 mps 760 mmHg 50%
    20:00 +25°C° 0 mm 2 mps 760 mmHg 55%
    21:00 +25°C° 0 mm 1 mps 760 mmHg 54%
    22:00 +25°C° 0 mm 1 mps 760 mmHg 53%
    23:00 +22°C° 0 mm 0 mps 761 mmHg 52%

    Day after tomorrow, 22 May, Wednesday

    Time Temperature Precipitation Wind Pressure Humidity
    00:00 +22°C° 0 mm 0 mps 760 mmHg 52%
    01:00 +22°C° 0 mm 0 mps 760 mmHg 51%
    02:00 +22°C° 0 mm 0 mps 760 mmHg 50%
    03:00 +22°C° 0 mm 0 mps 760 mmHg 49%
    04:00 +24°C° 0 mm 1 mps 760 mmHg 48%
    05:00 +24°C° 0 mm 1 mps 760 mmHg 47%
    06:00 +26°C° 0 mm 1 mps 760 mmHg 42%
    07:00 +29°C° 0 mm 1 mps 760 mmHg 37%
    08:00 +31°C° 0 mm 1 mps 761 mmHg 32%
    09:00 +32°C° 0 mm 2 mps 761 mmHg 31%
    10:00 +34°C° 0 mm 3 mps 761 mmHg 30%
    11:00 +35°C° 0 mm 4 mps 761 mmHg 28%
    12:00 +35°C° 0 mm 4 mps 760 mmHg 28%
    13:00 +36°C° 0 mm 4 mps 760 mmHg 28%
    14:00 +36°C° 0 mm 4 mps 760 mmHg 28%
    15:00 +35°C° 0 mm 3 mps 760 mmHg 30%
    16:00 +34°C° 0 mm 3 mps 760 mmHg 33%
    17:00 +33°C° 0 mm 3 mps 759 mmHg 35%
    18:00 +31°C° 0 mm 2 mps 760 mmHg 37%
    19:00 +29°C° 0 mm 2 mps 760 mmHg 40%
    20:00 +28°C° 0 mm 1 mps 760 mmHg 43%
    21:00 +27°C° 0 mm 1 mps 760 mmHg 42%
    22:00 +25°C° 0 mm 0 mps 760 mmHg 42%
    23:00 +25°C° 0 mm 0 mps 760 mmHg 41%

    23 May, Thursday

    Time Temperature Precipitation Wind Pressure Humidity
    00:00 +25°C° 0 mm 0 mps 760 mmHg 41%
    01:00 +26°C° 0 mm 1 mps 759 mmHg 41%
    02:00 +26°C° 0 mm 1 mps 759 mmHg 40%
    03:00 +26°C° 0 mm 1 mps 759 mmHg 40%
    04:00 +26°C° 0 mm 1 mps 759 mmHg 40%
    05:00 +26°C° 0 mm 1 mps 759 mmHg 39%
    06:00 +28°C° 0 mm 1 mps 759 mmHg 36%
    07:00 +30°C° 0 mm 1 mps 759 mmHg 32%
    08:00 +30°C° 0 mm 0 mps 759 mmHg 28%
    09:00 +34°C° 0 mm 1 mps 759 mmHg 26%
    10:00 +37°C° 0 mm 2 mps 759 mmHg 24%
    11:00 +38°C° 0 mm 2 mps 759 mmHg 22%
    12:00 +38°C° 0 mm 3 mps 759 mmHg 22%
    13:00 +40°C° 0 mm 4 mps 758 mmHg 22%
    14:00 +40°C° 0 mm 4 mps 758 mmHg 22%
    15:00 +38°C° 0 mm 4 mps 758 mmHg 25%
    16:00 +36°C° 0 mm 4 mps 757 mmHg 28%
    17:00 +35°C° 0 mm 4 mps 757 mmHg 32%
    18:00 +34°C° 0 mm 3 mps 757 mmHg 33%
    19:00 +31°C° 0 mm 3 mps 758 mmHg 35%
    20:00 +30°C° 0 mm 2 mps 758 mmHg 36%
    21:00 +30°C° 0 mm 2 mps 758 mmHg 35%
    22:00 +30°C° 0 mm 1 mps 757 mmHg 33%
    23:00 +30°C° 0 mm 1 mps 757 mmHg 31%

    24 May, Friday

    Time Temperature Precipitation Wind Pressure Humidity
    00:00 +30°C° 0 mm 2 mps 757 mmHg 29%
    01:00 +30°C° 0 mm 2 mps 756 mmHg 27%
    02:00 +31°C° 0 mm 3 mps 756 mmHg 25%
    03:00 +31°C° 0 mm 3 mps 756 mmHg 25%
    04:00 +30°C° 0 mm 4 mps 756 mmHg 25%
    05:00 +30°C° 0 mm 5 mps 755 mmHg 25%
    06:00 +33°C° 0 mm 5 mps 756 mmHg 23%
    07:00 +36°C° 0 mm 5 mps 756 mmHg 21%
    08:00 +39°C° 0 mm 6 mps 756 mmHg 19%
    09:00 +41°C° 0 mm 5 mps 756 mmHg 17%
    10:00 +43°C° 0 mm 5 mps 756 mmHg 15%
    11:00 +45°C° 0 mm 5 mps 755 mmHg 13%
    12:00 +45°C° 0 mm 4 mps 755 mmHg 13%
    13:00 +45°C° 0 mm 3 mps 755 mmHg 13%
    14:00 +45°C° 0 mm 3 mps 754 mmHg 13%
    15:00 +43°C° 0 mm 2 mps 754 mmHg 15%
    16:00 +42°C° 0 mm 1 mps 754 mmHg 16%
    17:00 +42°C° 0 mm 1 mps 754 mmHg 18%
    18:00 +40°C° 0 mm 1 mps 754 mmHg 18%
    19:00 +38°C° 0 mm 2 mps 754 mmHg 17%
    20:00 +37°C° 0 mm 2 mps 754 mmHg 16%
    21:00 +36°C° 0 mm 2 mps 754 mmHg 17%
    22:00 +35°C° 0 mm 1 mps 754 mmHg 17%
    23:00 +34°C° 0 mm 1 mps 754 mmHg 17%

    25 May, Saturday

    Time Temperature Precipitation Wind Pressure Humidity
    00:00 +34°C° 0 mm 1 mps 754 mmHg 17%
    01:00 +35°C° 0 mm 2 mps 754 mmHg 16%
    02:00 +34°C° 0 mm 2 mps 754 mmHg 16%
    03:00 +31°C° 0.1 mm 2 mps 754 mmHg 26%
    04:00 +30°C° 0.1 mm 2 mps 754 mmHg 36%
    05:00 +28°C° 0.1 mm 2 mps 755 mmHg 46%
    06:00 +28°C° 0 mm 2 mps 755 mmHg 48%
    07:00 +29°C° 0 mm 3 mps 756 mmHg 51%
    08:00 +30°C° 0 mm 3 mps 756 mmHg 53%
    09:00 +30°C° 0 mm 3 mps 757 mmHg 53%
    10:00 +32°C° 0 mm 4 mps 757 mmHg 54%
    11:00 +32°C° 0 mm 4 mps 757 mmHg 54%
    12:00 +32°C° 0 mm 4 mps 757 mmHg 55%
    13:00 +32°C° 0 mm 4 mps 756 mmHg 55%
    14:00 +32°C° 0 mm 4 mps 756 mmHg 55%
    15:00 +30°C° 0 mm 4 mps 756 mmHg 57%
    16:00 +29°C° 0 mm 4 mps 756 mmHg 59%
    17:00 +29°C° 0 mm 3 mps 756 mmHg 60%
    18:00 +27°C° 0 mm 3 mps 756 mmHg 66%
    19:00 +26°C° 0 mm 2 mps 757 mmHg 72%
    20:00 +25°C° 0 mm 2 mps 757 mmHg 78%
    21:00 +25°C° 0 mm 2 mps 757 mmHg 78%
    22:00 +25°C° 0 mm 2 mps 757 mmHg 77%
    23:00 +25°C° 0 mm 2 mps 757 mmHg 77%
    Show more